Location: ???????
(55.8860°N, 38.0932°E)
Time: 21:12:25
(UTC+00:00)

COBE Rocket - Visible Passes

Search period start: 12 July 2024 00:00
Search period end: 22 July 2024 00:00
Orbit: 678 x 776 km, 97.1° (Epoch: 11 July)

Date Brightness Start Highest point End Pass type
(mag) Time Alt. Az. Time Alt. Az. Time Alt. Az.
12 Jul 5.7 21:39:01 10° NE 21:42:57 22° E 21:46:48 10° SE visible
12 Jul 4.1 23:16:49 10° N 23:21:53 72° WNW 23:26:34 11° SSW visible
13 Jul 4.5 22:28:57 10° NNE 22:33:53 52° E 22:38:05 13° S visible
14 Jul 5.6 21:41:32 10° NE 21:45:33 24° E 21:49:27 10° SE visible
14 Jul 4.1 23:19:24 10° N 23:24:25 67° WNW 23:29:00 11° SSW visible
15 Jul 6.4 20:56:07 10° ENE 20:56:52 10° ENE 20:57:36 10° E visible
15 Jul 4.4 22:31:30 10° NNE 22:36:26 55° E 22:40:32 14° S visible
16 Jul 5.2 00:10:14 10° N 00:14:35 30° WNW 00:18:49 10° WSW visible
16 Jul 5.5 21:44:02 10° NNE 21:48:07 25° E 21:52:03 10° SE visible
16 Jul 4.1 23:21:59 10° N 23:26:56 63° WNW 23:31:26 12° SSW visible
17 Jul 6.3 20:58:08 10° ENE 20:59:28 11° ENE 21:00:47 10° E visible
17 Jul 4.2 22:34:03 10° NNE 22:39:00 59° E 22:42:57 15° S visible
18 Jul 5.4 21:46:32 10° NNE 21:50:42 26° E 21:54:28 11° SE visible
18 Jul 4.2 23:24:33 10° N 23:29:28 59° WNW 23:33:52 12° SSW visible
19 Jul 6.2 21:00:21 10° ENE 21:02:04 12° E 21:03:45 10° E visible
19 Jul 4.2 22:36:36 10° NNE 22:41:32 63° E 22:45:22 16° S visible
20 Jul 5.3 00:15:27 10° N 00:19:35 27° WNW 00:23:36 10° WSW visible
20 Jul 5.3 21:49:02 10° NNE 21:53:15 28° E 21:56:53 12° SE visible
20 Jul 4.3 23:27:08 10° N 23:31:59 55° WNW 23:36:17 12° SW visible
21 Jul 6.2 21:02:39 10° NE 21:04:39 12° E 21:06:38 10° ESE visible
21 Jul 4.1 22:39:08 10° NNE 22:44:04 67° E 22:47:47 17° S visible
